| time (UTC) | temp C | wind direction | speed KPH | gust KPH | rain 1hr cm | rain 24hr cm | rain mn cm | humidity % | barometer mb |
| 20260505184145 | 14 | 261 | 0.0 | 11.3 | 0.00 | 0.61 | 0.36 | 82 | 1016.3 |
| 20260505183645 | 14 | 259 | 0.0 | 6.4 | 0.00 | 0.61 | 0.36 | 84 | 1016.7 |
| 20260505183145 | 14 | 259 | 0.0 | 6.4 | 0.00 | 0.61 | 0.36 | 83 | 1016.7 |
| 20260505182646 | 14 | 265 | 0.0 | 9.7 | 0.00 | 0.61 | 0.36 | 84 | 1016.7 |
| 20260505182145 | 13 | 264 | 0.0 | 9.7 | 0.00 | 0.61 | 0.36 | 85 | 1016.7 |
| 20260505181645 | 13 | 267 | 0.0 | 1.6 | 0.00 | 0.61 | 0.36 | 86 | 1016.6 |
| 20260505181145 | 13 | 267 | 0.0 | 9.7 | 0.00 | 0.61 | 0.36 | 86 | 1016.7 |
| 20260505180645 | 13 | 267 | 0.0 | 9.7 | 0.00 | 0.61 | 0.36 | 86 | 1016.7 |
| 20260505180400 | 13 | 267 | 0.0 | 0.0 | 0.00 | 0.61 | 0.36 | 87 | 1016.6 |
| 20260505175646 | 13 | 267 | 0.0 | 0.0 | 0.00 | 0.61 | 0.36 | 87 | 1016.4 |
| 20260505175145 | 13 | 267 | 0.0 | 0.0 | 0.00 | 0.61 | 0.36 | 87 | 1016.6 |
| 20260505174646 | 13 | 267 | 0.0 | 3.2 | 0.00 | 0.61 | 0.36 | 88 | 1016.2 |
| 20260505174144 | 13 | 267 | 0.0 | 11.3 | 0.00 | 0.61 | 0.36 | 88 | 1016.2 |
| 20260505173639 | 13 | 267 | 1.6 | 11.3 | 0.00 | 0.61 | 0.36 | 88 | 1016.2 |
| 20260505173139 | 13 | 250 | 0.0 | 9.7 | 0.00 | 0.61 | 0.36 | 90 | 1016.2 |
| 20260505172637 | 13 | 251 | 0.0 | 9.7 | 0.00 | 0.61 | 0.36 | 90 | 1016.1 |
| 20260505172135 | 13 | 252 | 0.0 | 6.4 | 0.00 | 0.61 | 0.36 | 91 | 1016.1 |
| 20260505171635 | 13 | 252 | 0.0 | 6.4 | 0.00 | 0.61 | 0.36 | 91 | 1016.1 |
| 20260505171135 | 13 | 252 | 0.0 | 0.0 | 0.00 | 0.61 | 0.36 | 92 | 1016.1 |
| 20260505170635 | 12 | 252 | 0.0 | 0.0 | 0.00 | 0.61 | 0.36 | 92 | 1016.2 |
| 20260505170350 | 12 | 252 | 0.0 | 0.0 | 0.00 | 0.61 | 0.36 | 92 | 1016.2 |
| 20260505165832 | 12 | 252 | 0.0 | 0.0 | 0.00 | 0.61 | 0.36 | 92 | 1016.2 |
| 20260505165346 | 12 | 252 | 0.0 | 0.0 | 0.00 | 0.61 | 0.36 | 92 | 1016.2 |
| 20260505164635 | 12 | 252 | 0.0 | 0.0 | 0.00 | 0.61 | 0.36 | 93 | 1016.2 |
| 20260505164134 | 12 | 252 | 0.0 | 0.0 | 0.00 | 0.61 | 0.36 | 93 | 1016.2 |
| 20260505163633 | 12 | 252 | 0.0 | 0.0 | 0.00 | 0.61 | 0.36 | 93 | 1016.1 |
| 20260505163622 | 12 | 252 | 0.0 | 0.0 | 0.00 | 0.61 | 0.36 | 93 | 1016.1 |
| 20260505163348 | 12 | 252 | 0.0 | 0.0 | 0.00 | 0.61 | 0.36 | 93 | 1016.1 |
| 20260505162633 | 12 | 252 | 0.0 | 0.0 | 0.00 | 0.61 | 0.36 | 93 | 1016.2 |
| 20260505162344 | 12 | 252 | 0.0 | 0.0 | 0.00 | 0.61 | 0.36 | 93 | 1016.1 |
| 20260505161630 | 12 | 252 | 0.0 | 0.0 | 0.00 | 0.61 | 0.36 | 93 | 1016.1 |
| 20260505161132 | 12 | 252 | 0.0 | 0.0 | 0.00 | 0.61 | 0.36 | 94 | 1016.0 |
| 20260505160631 | 11 | 252 | 0.0 | 0.0 | 0.00 | 0.61 | 0.36 | 94 | 1016.0 |
| 20260505160129 | 11 | 252 | 0.0 | 0.0 | 0.00 | 0.61 | 0.36 | 94 | 1015.9 |
| 20260505153124 | 11 | 252 | 0.0 | 0.0 | 0.00 | 0.61 | 0.36 | 94 | 1015.7 |
| 20260505152625 | 11 | 252 | 0.0 | 3.2 | 0.00 | 0.61 | 0.36 | 94 | 1015.7 |
| 20260505152125 | 11 | 252 | 0.0 | 6.4 | 0.00 | 0.61 | 0.36 | 94 | 1015.6 |
| 20260505151625 | 11 | 252 | 0.0 | 6.4 | 0.00 | 0.61 | 0.36 | 94 | 1015.6 |
| 20260505151125 | 11 | 252 | 0.0 | 1.6 | 0.00 | 0.61 | 0.36 | 94 | 1015.6 |
| 20260505150625 | 11 | 252 | 0.0 | 6.4 | 0.00 | 0.61 | 0.36 | 94 | 1015.5 |
| 20260505150125 | 11 | 252 | 0.0 | 6.4 | 0.00 | 0.61 | 0.36 | 94 | 1015.6 |
| 20260505140617 | 11 | 252 | 0.0 | 0.0 | 0.00 | 0.61 | 0.36 | 94 | 1015.1 |
| 20260505140115 | 11 | 252 | 0.0 | 0.0 | 0.00 | 0.61 | 0.36 | 94 | 1015.3 |
| 20260505124559 | 10 | 252 | 0.0 | 0.0 | 0.00 | 0.61 | 0.36 | 93 | 1014.8 |
| 20260505124056 | 10 | 252 | 0.0 | 0.0 | 0.00 | 0.61 | 0.36 | 93 | 1014.9 |
| 20260505123554 | 10 | 252 | 0.0 | 0.0 | 0.00 | 0.61 | 0.36 | 93 | 1014.8 |
| 20260505123053 | 10 | 252 | 0.0 | 0.0 | 0.00 | 0.61 | 0.36 | 93 | 1014.9 |
| 20260505122552 | 10 | 252 | 0.0 | 0.0 | 0.00 | 0.61 | 0.36 | 93 | 1015.1 |
| 20260505122053 | 10 | 252 | 0.0 | 0.0 | 0.00 | 0.61 | 0.36 | 93 | 1015.0 |
| 20260505121550 | 10 | 252 | 0.0 | 0.0 | 0.00 | 0.61 | 0.36 | 93 | 1015.1 |
| 20260505121049 | 10 | 252 | 0.0 | 0.0 | 0.03 | 0.61 | 0.36 | 93 | 1015.1 |
| 20260505120549 | 10 | 252 | 0.0 | 0.0 | 0.03 | 0.61 | 0.36 | 93 | 1015.1 |
| 20260505120058 | 10 | 252 | 0.0 | 0.0 | 0.03 | 0.61 | 0.36 | 93 | 1015.1 |
| 20260505120048 | 10 | 252 | 0.0 | 0.0 | 0.03 | 0.61 | 0.36 | 93 | 1015.1 |
| 20260505115800 | 10 | 252 | 0.0 | 0.0 | 0.03 | 0.61 | 0.36 | 93 | 1015.1 |
| 20260505115048 | 10 | 252 | 0.0 | 0.0 | 0.03 | 0.61 | 0.36 | 93 | 1015.0 |
| 20260505114548 | 10 | 252 | 0.0 | 0.0 | 0.03 | 0.61 | 0.36 | 93 | 1014.9 |
| 20260505114048 | 10 | 252 | 0.0 | 0.0 | 0.03 | 0.61 | 0.36 | 93 | 1014.9 |
| 20260505113547 | 10 | 252 | 0.0 | 0.0 | 0.03 | 0.61 | 0.36 | 93 | 1014.9 |
| 20260505113044 | 10 | 252 | 0.0 | 0.0 | 0.03 | 0.61 | 0.36 | 93 | 1014.7 |
| 20260505112758 | 10 | 252 | 0.0 | 0.0 | 0.03 | 0.61 | 0.36 | 93 | 1014.7 |
| 20260505112044 | 10 | 252 | 0.0 | 0.0 | 0.03 | 0.61 | 0.36 | 93 | 1014.8 |
| 20260505111544 | 10 | 252 | 0.0 | 0.0 | 0.03 | 0.61 | 0.36 | 93 | 1015.0 |
| 20260505111044 | 10 | 252 | 0.0 | 0.0 | 0.00 | 0.58 | 0.33 | 93 | 1015.1 |
| 20260505110545 | 10 | 252 | 0.0 | 0.0 | 0.00 | 0.58 | 0.33 | 93 | 1015.2 |
| 20260505110258 | 10 | 252 | 0.0 | 0.0 | 0.00 | 0.58 | 0.33 | 93 | 1015.2 |
| 20260505102033 | 10 | 252 | 0.0 | 0.0 | 0.00 | 0.58 | 0.33 | 93 | 1015.4 |
| 20260505101534 | 10 | 252 | 0.0 | 0.0 | 0.00 | 0.58 | 0.33 | 93 | 1015.4 |
| 20260505101035 | 10 | 252 | 0.0 | 0.0 | 0.00 | 0.58 | 0.33 | 93 | 1015.2 |
| 20260505100534 | 10 | 252 | 0.0 | 0.0 | 0.03 | 0.58 | 0.33 | 93 | 1015.0 |
| 20260505100034 | 10 | 252 | 0.0 | 3.2 | 0.03 | 0.58 | 0.33 | 93 | 1015.0 |
| 20260505095534 | 10 | 252 | 0.0 | 3.2 | 0.03 | 0.58 | 0.33 | 93 | 1015.2 |
| 20260505095032 | 10 | 252 | 0.0 | 0.0 | 0.05 | 0.58 | 0.33 | 93 | 1015.3 |
| 20260505094532 | 10 | 252 | 0.0 | 1.6 | 0.05 | 0.58 | 0.33 | 93 | 1015.3 |
| 20260505094032 | 10 | 252 | 0.0 | 1.6 | 0.05 | 0.58 | 0.33 | 93 | 1015.4 |
| 20260505093533 | 10 | 252 | 0.0 | 0.0 | 0.05 | 0.58 | 0.33 | 93 | 1015.5 |
| 20260505093032 | 10 | 252 | 0.0 | 0.0 | 0.08 | 0.58 | 0.33 | 93 | 1015.5 |
| 20260505092744 | 10 | 252 | 0.0 | 0.0 | 0.10 | 0.58 | 0.33 | 93 | 1015.6 |
| 20260505092030 | 10 | 252 | 0.0 | 0.0 | 0.10 | 0.58 | 0.33 | 93 | 1015.5 |
| 20260505091530 | 10 | 252 | 0.0 | 0.0 | 0.13 | 0.58 | 0.33 | 93 | 1015.4 |
| 20260505091030 | 10 | 252 | 0.0 | 0.0 | 0.15 | 0.58 | 0.33 | 93 | 1015.3 |
| 20260505090530 | 10 | 252 | 0.0 | 0.0 | 0.15 | 0.56 | 0.30 | 93 | 1015.5 |
| 20260505090030 | 10 | 252 | 0.0 | 0.0 | 0.15 | 0.56 | 0.30 | 93 | 1015.5 |
| 20260505085530 | 10 | 252 | 0.0 | 0.0 | 0.18 | 0.56 | 0.30 | 92 | 1015.7 |
| 20260505085030 | 10 | 252 | 0.0 | 0.0 | 0.15 | 0.53 | 0.30 | 92 | 1015.8 |
| 20260505084530 | 10 | 252 | 0.0 | 0.0 | 0.15 | 0.53 | 0.28 | 92 | 1015.8 |
| 20260505084029 | 10 | 252 | 0.0 | 0.0 | 0.18 | 0.53 | 0.28 | 92 | 1015.9 |
| 20260505083530 | 10 | 252 | 0.0 | 0.0 | 0.20 | 0.53 | 0.28 | 92 | 1015.8 |
| 20260505083030 | 10 | 252 | 0.0 | 0.0 | 0.18 | 0.51 | 0.25 | 92 | 1015.8 |
| 20260505082531 | 10 | 252 | 0.0 | 0.0 | 0.18 | 0.48 | 0.23 | 92 | 1015.7 |
| 20260505082030 | 10 | 252 | 0.0 | 0.0 | 0.18 | 0.48 | 0.23 | 92 | 1015.6 |
| 20260505081530 | 10 | 252 | 0.0 | 0.0 | 0.18 | 0.46 | 0.20 | 92 | 1015.6 |
| 20260505081030 | 10 | 252 | 0.0 | 0.0 | 0.15 | 0.43 | 0.18 | 92 | 1015.6 |
| 20260505080529 | 10 | 252 | 0.0 | 0.0 | 0.15 | 0.41 | 0.15 | 92 | 1015.7 |
| 20260505080030 | 10 | 252 | 0.0 | 0.0 | 0.15 | 0.41 | 0.15 | 92 | 1015.8 |
| 20260505075742 | 10 | 252 | 0.0 | 0.0 | 0.15 | 0.38 | 0.13 | 92 | 1015.8 |
| 20260505075030 | 10 | 252 | 0.0 | 0.0 | 0.15 | 0.38 | 0.13 | 92 | 1015.9 |
| 20260505074529 | 10 | 252 | 0.0 | 0.0 | 0.15 | 0.38 | 0.13 | 92 | 1016.0 |
| 20260505074241 | 10 | 252 | 0.0 | 0.0 | 0.13 | 0.36 | 0.10 | 92 | 1015.9 |
| 20260505073530 | 10 | 252 | 0.0 | 0.0 | 0.10 | 0.33 | 0.08 | 92 | 1015.9 |
| 20260505073030 | 10 | 252 | 0.0 | 0.0 | 0.13 | 0.33 | 0.08 | 92 | 1015.9 |
| 20260505072530 | 10 | 252 | 0.0 | 0.0 | 0.10 | 0.30 | 0.05 | 91 | 1015.8 |
| 20260505072030 | 10 | 252 | 0.0 | 0.0 | 0.10 | 0.30 | 0.05 | 91 | 1015.9 |
| 20260505071530 | 10 | 252 | 0.0 | 0.0 | 0.08 | 0.28 | 0.03 | 91 | 1016.0 |
| 20260505071030 | 10 | 252 | 0.0 | 0.0 | 0.10 | 0.28 | 0.03 | 91 | 1016.1 |
| 20260505070530 | 10 | 252 | 0.0 | 0.0 | 0.08 | 0.25 | 0.00 | 91 | 1016.2 |
| 20260505070029 | 10 | 252 | 0.0 | 0.0 | 0.08 | 0.25 | 0.00 | 91 | 1016.3 |
| 20260505065529 | 10 | 252 | 0.0 | 0.0 | 0.05 | 0.23 | 0.23 | 91 | 1016.2 |
| 20260505065235 | 10 | 252 | 0.0 | 0.0 | 0.08 | 0.23 | 0.23 | 91 | 1016.3 |
| 20260505064525 | 10 | 252 | 0.0 | 0.0 | 0.08 | 0.23 | 0.23 | 91 | 1016.1 |
| 20260505064025 | 10 | 252 | 0.0 | 0.0 | 0.08 | 0.23 | 0.23 | 91 | 1016.0 |
| 20260505063525 | 10 | 252 | 0.0 | 0.0 | 0.10 | 0.23 | 0.23 | 91 | 1015.9 |
| 20260505063025 | 10 | 252 | 0.0 | 0.0 | 0.08 | 0.20 | 0.20 | 91 | 1015.8 |
| 20260505062525 | 10 | 252 | 0.0 | 0.0 | 0.08 | 0.20 | 0.20 | 91 | 1015.7 |
| 20260505062024 | 10 | 252 | 0.0 | 0.0 | 0.08 | 0.20 | 0.20 | 91 | 1015.7 |
| 20260505061525 | 10 | 252 | 0.0 | 0.0 | 0.08 | 0.20 | 0.20 | 90 | 1015.7 |
| 20260505061025 | 10 | 252 | 0.0 | 0.0 | 0.08 | 0.18 | 0.18 | 90 | 1015.5 |
| 20260505060737 | 11 | 252 | 0.0 | 0.0 | 0.08 | 0.18 | 0.18 | 90 | 1015.6 |
| 20260505060024 | 11 | 253 | 0.0 | 0.0 | 0.10 | 0.18 | 0.18 | 90 | 1015.5 |
| 20260505055525 | 11 | 253 | 0.0 | 0.0 | 0.10 | 0.18 | 0.18 | 90 | 1015.6 |
| 20260505055025 | 11 | 253 | 0.0 | 0.0 | 0.10 | 0.15 | 0.15 | 90 | 1015.7 |
| 20260505054525 | 11 | 253 | 0.0 | 0.0 | 0.10 | 0.15 | 0.15 | 90 | 1015.8 |
| 20260505054024 | 11 | 253 | 0.0 | 0.0 | 0.13 | 0.15 | 0.15 | 90 | 1015.8 |
| 20260505053525 | 11 | 253 | 0.0 | 0.0 | 0.10 | 0.13 | 0.13 | 89 | 1015.8 |
| 20260505053021 | 11 | 253 | 0.0 | 0.0 | 0.10 | 0.13 | 0.13 | 90 | 1015.7 |
| 20260505052736 | 11 | 253 | 0.0 | 0.0 | 0.10 | 0.13 | 0.13 | 89 | 1015.7 |
| 20260505052021 | 11 | 253 | 0.0 | 0.0 | 0.13 | 0.13 | 0.13 | 89 | 1015.7 |
| 20260505051520 | 11 | 253 | 0.0 | 0.0 | 0.13 | 0.13 | 0.13 | 89 | 1015.8 |
| 20260505051021 | 11 | 253 | 0.0 | 0.0 | 0.10 | 0.10 | 0.10 | 89 | 1015.8 |
| 20260505050520 | 11 | 253 | 0.0 | 0.0 | 0.10 | 0.10 | 0.10 | 89 | 1015.9 |
| 20260505041509 | 12 | 253 | 0.0 | 1.6 | 0.00 | 0.00 | 0.00 | 86 | 1016.4 |
| 20260505041243 | 12 | 253 | 0.0 | 0.0 | 0.00 | 0.00 | 0.00 | 85 | 1016.4 |